星链-36052(STARLINK-36052)
导读
STARLINK-36052是美国SpaceX公司星链(Starlink)星座的第二代低轨通信卫星,于2025年11月22日发射入轨。作为星链全球组网的一部分,它运行于近地轨道,搭载激光通信链路,旨在为全球尤其是偏远欠发达地区提供高速低延迟宽带互联网服务,进一步扩展了星链星座的覆盖范围与服务承载能力,助力实现全球无缝网络覆盖目标。
Basic Information
目录编号:
66605
目录名称:
STARLINK-36052
国际标识:
2025-270T
轨道中心:
EARTH
卫星名称:
星链-36052
卫星全名:
星链-36052(STARLINK-36052)
卫星状态:
在轨 (已飞行286 天)
发射日期:
2025-11-22 UTC
国别 :
美国
(US)
星等 :
--
Orbit Information
| 数据来源 | 国际轨道数据 | AOE轨道数据 |
| 星历时间 | 2026-09-04T09:26:38+0800 16小时前 查看轨道信息 | 2026-08-30T18:00:00+0800 5天前 查看轨道信息 |
| 半长轴 | 6861.172km | 6861.152km |
| 偏心率 | 0.0001558 | 0.0001192 |
| 轨道倾角 | 43.002° | 43.003° |
| 近地点辐角 | 260.197° | 239.225° |
| 升交点赤经 | 128.980° | 155.206° |
| 平近点角 | 99.870° | 115.075° |
| 近地点 | 481.966km | 482.197km |
| 远地点 | 484.104km | 483.833km |
| 周期 | 94.266分钟 | 94.266分钟 |
| 每日圈数 | 15.275848 | 15.275915 |
Detailed Information
固有亮度:
5
最大亮度:
2.5
卫星平台:
Starlink V1.0
覆盖范围:
全球
运营商:
太空探索技术公司
运营商所在国:
美国
制造商(研发单位):
太空探索技术公司
制造商所在国:
美国
使用方式:
暂无
Satellite Introduction
Starlink 计划是 SpaceX 推出的全球卫星互联网项目,通过发射低轨道卫星,为全球尤其是偏远地区提供高速、低延迟的互联网服务。自 2019 年起,Starlink 已部署数千颗卫星,旨在缩小全球数字鸿沟,推动互联网普及。该项目还为军事、航空等行业提供通信支持,带来广泛经济效益。
2D Orbit Map
3D Orbit Map
Orbit Altitude Analysis Chart
Orbit Inclination Analysis Chart
Orbit Comprehensive Analysis Chart
View Comprehensive ChartConjunction Data List
| Event ID | Objects | TCA | Miss Dist (km) | Collision Risk Probability | Collision Risk Index (CRI) | Action |
|---|---|---|---|---|---|---|
| CDM_260904-163204-701506-660522 |
FENGYUN 1C DEB *
(47015)
STARLINK-36052
(66605) | 2026-09-04T 16:32:30+0000 |
1.128 km
极远距离 | 1.725442E-5 中风险 | 0.6 | |
| CDM_260907-023705-789606-660521 |
STARLINK-30469
(57896)
STARLINK-36052
(66605) | 2026-09-07T 02:37:15+0000 |
1.449 km
极远距离 | 4.981943E-6 低风险 | 0.49 |

